Find Starlink 31717

NORAD ID: 59385 Int'l Des: 2024-062 Owner: SPXS Country: US Constellation: starlink operational
LEOCIRCULAR

現在のビュー

3D地球を読み込み中...

About Starlink 31717

Starlink 31717 (NORAD 59385) is a starlink constellation satellite (v2 mini) launched Apr 2, 2024 by SPXS of US. It operates in LEO, CIRCULAR orbit with a mass of 730.00 kg.

Starlink 31717について

説明を読み込み中...

次回通過

Passes for default location (London). Set your location on the main map for personalized predictions.

高度履歴

Loading altitude history...

軌道要素

1 59385U 24062M 26166.30949293 .00000058 00000-0 12869-4 0 9997
2 59385 53.1609 161.7910 0001405 91.2747 268.8416 15.34382795124617
Epoch: Jun 15, 2026 • Age: 8 hours

現在のステータス

高度 465.4 km
速度 7.64 km/s
衛星直下点 38.94°N, 61.3°E
打ち上げ日 Apr 2, 2024
運用期間 2.2 years
タイプ internet

技術仕様

分類 Payload
質量 730.00 kg
乾燥質量 700.00 kg
総質量 730.00 kg
長さ 0.30 m
直径 4.10 m
スパン 29.00 m
形状 Box + pan
製造者 SPXS
バスタイプ Starlink V2M
フェーズステータス In Orbit
所有者/国 SPXS/US

Most Searched